Location: Ayer Observatory
(42.2600°N, 71.0700°W)
Time: 10:05:46
(UTC-04:00)

FO-29 - Pass Details

Date: 26 August 2019
Orbit: 800 x 1321 km, 98.6° (Epoch: 20 September)

Event Time Altitude Azimuth Distance (km) Brightness Sun altitude
Exits shadow 02:03:59 15° 93° (E) 2,085 11.4 -34.3°
Maximum altitude 02:06:13 19° 62° (ENE) 1,836 11.4 -34.2°
Drops below altitude 10° 02:09:47 10° 18° (NNE) 2,384 12.4 -33.9°
Sets 02:12:43 0° 2° (N) 3,326 13.2 -33.6°
